Preview of NWS' New Version of Forecast
This preview is not operational and should not be used for support decisions.

Regional Weather Roundup (RWR)

Issued by Binghamton, NY (BGM)

                            
000
ASUS41 KBGM 200810
RWRBGM

REGIONAL WEATHER ROUNDUP
NATIONAL WEATHER SERVICE BINGHAMTON NY
400 AM EDT MON MAY 20 2019

Note: "fair" indicates few or no clouds below 12,000 feet with no
significant weather and/or obstructions to visibility.

* = Station(s) that does not report precipitation, such as rain, 
snow, etc, also no thunder or fog.

NYZ009-015>018-022>025-036-037-044>046-055>057-062-200900
...Central New York...
  
CITY           SKY/WX    TMP DP  RH WIND       PRES   REMARKS
Binghamton     CLOUDY    63  60  90 SW9       29.82F                  
Cortland       LGT RAIN  61  59  94 CALM      29.80S                  
Dansville      FAIR      65  59  81 SE8       29.76R                  
Elmira         LGT RAIN  65  60  84 W5        29.79F                  
Endicott       CLOUDY    66  66 100 CALM      29.80F                  
Ithaca         LGT RAIN  64  60  87 S6        29.80S                  
Hamilton       CLOUDY    63  57  82 S3        29.79F                  
Hornell        MOCLDY    63  57  82 S5        29.82R                  
Monticello     FAIR      63  62  97 SW5       29.86S                  
Norwich        MOCLDY    64  64 100 S8        29.80F                  
Oneonta        PTCLDY    64  64 100 SW3       29.82F                  
Penn Yan       FAIR      63  58  83 SW13      29.76S                  
Rome           LGT RAIN  64  62  93 E5        29.77S FOG              
Seneca Falls   PTSUNNY   63  59  88 S9        29.74S                  
Sidney         LGT RAIN  68  68 100 W3        29.82F                  
Skaneateles    LGT RAIN  64  61  88 VRB7      29.76F                  
Syracuse       LGT RAIN  65  62  90 SE6       29.73F                  
$$
 
PAZ038>040-043-044-047-048-072-200900
...Northeast Pennsylvania...
  
CITY           SKY/WX    TMP DP  RH WIND       PRES   REMARKS
Hazleton       MOCLDY    68  61  77 CALM      29.90R                  
Scranton       MOCLDY    68  63  84 SW6       29.84S                  
Towanda        SUNNY     66  66 100 CALM      29.82F                  
$$
&&
KEY
WCI = Wind Chill Index
VSB = Visibility
HX  = Heat Index
$$